Location: Alafon
(8.4500°N, 4.2333°E)
Time: 04:09:39
(UTC+00:00)

SR - All Passes

Search period start: 01 August 2021 00:00
Search period end: 11 August 2021 00:00
Orbit: 577 x 877 km, 66.7° (Epoch: 31 July)

Date Brightness Start Highest point End Pass type
(mag) Time Alt. Az. Time Alt. Az. Time Alt. Az.
01 Aug - 03:37:20 10° SSE 03:42:03 25° ESE 03:46:45 10° NE visible
01 Aug - 05:18:57 10° SW 05:23:54 28° WNW 05:28:48 10° N daylight
01 Aug - 15:59:23 10° NNW 16:03:41 76° WSW 16:07:52 10° SSE daylight
02 Aug - 04:28:16 10° SSW 04:34:06 65° WNW 04:39:54 10° NNE visible
02 Aug - 15:10:03 10° N 15:13:57 33° ENE 15:17:44 10° SE daylight
03 Aug - 03:38:38 10° S 03:44:21 54° ESE 03:50:03 10° NNE visible
03 Aug - 05:23:55 10° W 05:26:22 13° WNW 05:28:50 10° NW daylight
03 Aug - 14:22:39 10° NE 14:24:04 11° ENE 14:25:29 10° E daylight
03 Aug - 16:02:18 10° NW 16:05:54 26° WSW 16:09:27 10° SSW daylight
04 Aug - 02:50:08 10° SSE 02:54:38 23° ESE 02:59:09 10° ENE visible
04 Aug - 04:31:24 10° SW 04:36:29 30° WNW 04:41:32 10° N visible
04 Aug - 15:11:56 10° NNW 15:16:14 86° WSW 15:20:26 10° SSE daylight
05 Aug - 03:40:49 10° SSW 03:46:41 71° WNW 03:52:30 10° NNE visible
05 Aug - 14:22:43 10° N 14:26:29 29° ENE 14:30:09 10° SE daylight
06 Aug - 02:51:17 10° S 02:56:57 49° ESE 03:02:34 10° NE visible
06 Aug - 04:36:01 10° W 04:38:56 14° WNW 04:41:51 10° NW visible
06 Aug - 13:36:26 10° ENE 13:36:37 10° ENE 13:36:47 10° ENE daylight
06 Aug - 15:14:44 10° NW 15:18:28 30° WSW 15:22:08 10° S daylight
07 Aug - 02:02:56 10° SSE 02:07:15 21° ESE 02:11:31 10° ENE visible
07 Aug - 03:43:51 10° SW 03:49:04 33° WNW 03:54:14 10° N visible
07 Aug - 14:24:31 10° NNW 14:28:47 84° ENE 14:32:59 10° SSE daylight
08 Aug - 02:53:23 10° SSW 02:59:17 77° WNW 03:05:06 10° NNE visible
08 Aug - 13:35:25 10° N 13:39:01 26° ENE 13:42:34 10° SE daylight
08 Aug - 15:19:29 10° W 15:20:40 11° WSW 15:21:51 10° SW daylight
09 Aug - 02:03:57 10° S 02:09:33 45° ESE 02:15:05 10° NE visible
09 Aug - 03:48:12 10° WSW 03:51:30 15° WNW 03:54:48 10° NNW visible
09 Aug - 14:27:11 10° NW 14:31:01 33° WSW 14:34:49 10° S daylight
10 Aug - 01:15:46 10° SSE 01:19:50 19° ESE 01:23:52 10° ENE visible
10 Aug - 02:56:19 10° SW 03:01:39 36° WNW 03:06:55 10° N visible
10 Aug - 13:37:05 10° NNW 13:41:19 74° ENE 13:45:31 10° SSE daylight
